Elkins, WV

5:54 PM EST on November 15, 2019 (GMT -0500)
Elkins-Randolph County

Weather History for KEKN - September, 2019

Change the Weather History Date:

Monday, September 2, 2019

  Actual Average Record
Temperature  
Mean Temperature 70 °F 67 °F  
Max Temperature 82 °F 78 °F 93 °F (1953)
Min Temperature 59 °F 55 °F 38 °F (1999)
Degree Days  
Heating Degree Days 0 1  
Month to date heating degree days 0 2  
Since 1 July heating degree days 7 32  
Cooling Degree Days 6 3  
Month to date cooling degree days 14 6  
Year to date cooling degree days 685 432  
Growing Degree Days 20 (Base 50)    
Moisture  
Dew Point 61 °F    
Average Humidity 70    
Maximum Humidity 90    
Minimum Humidity 51    
Precipitation  
Precipitation T in 0.13 in 1.95 in (1969)
Month to date precipitation T 0.25  
Year to date precipitation 37.71 33.06  
Snow  
Snow 0.00 in 0.00 in 0.00 in (2017)
Month to date snowfall 0.0 0.0  
Since 1 September snowfall 0.0 0.0  
Snow Depth 0.00 in    
Sea Level Pressure  
Sea Level Pressure 30.10 in    
Wind  
Wind Speed 4 mph ()    
Max Wind Speed 14 mph    
Max Gust Speed 19 mph    
Visibility 9.9 miles    
Events      
T = Trace of Precipitation, MM = Missing Value Source: Averaged Metar Reports

Daily Weather History Graph

Daily Weather History Graph

Search for Another Location

Airport or City:

Astronomy

Sep. 02, 2019 Rise Set
Actual Time 6:49 AM EDT 7:48 PM EDT
Civil Twilight 6:21 AM EDT 8:15 PM EDT
Nautical Twilight 5:49 AM EDT 8:48 PM EDT
Astronomical Twilight 5:15 AM EDT 9:21 PM EDT
Moon 10:27 AM EDT (9/2) 10:11 PM EDT (9/2)
Length of Visible Light 13h 54m
Length of Day
12h 59m
Waxing Crescent, 15% of the Moon is Illuminated
Sep 2
Waxing Crescent
Sep 5
First Quarter
Sep 14
Full
Sep 21
Last Quarter
Sep 28
New

Hourly Weather History & Observations

Time (EDT) Temp. Heat Index Dew Point Humidity Pressure Visibility Wind Dir Wind Speed Gust Speed Precip Events Conditions
12:51 AM 72.0 °F - 59.0 °F 64% 30.12 in 10.0 mi South 8.1 mph - N/A   Clear
1:51 AM 70.0 °F - 59.0 °F 68% 30.11 in 10.0 mi SSE 9.2 mph - N/A   Clear
2:51 AM 69.1 °F - 59.0 °F 70% 30.11 in 10.0 mi SSE 6.9 mph - N/A   Clear
3:51 AM 69.1 °F - 59.0 °F 70% 30.10 in 10.0 mi SSE 5.8 mph - N/A   Mostly Cloudy
4:51 AM 68.0 °F - 60.1 °F 76% 30.11 in 10.0 mi Calm Calm - N/A   Overcast
5:51 AM 66.0 °F - 60.1 °F 81% 30.10 in 10.0 mi SE 4.6 mph - 0.00 in   Mostly Cloudy
6:51 AM 66.0 °F - 60.1 °F 81% 30.10 in 10.0 mi Calm Calm - N/A   Overcast
7:51 AM 64.9 °F - 61.0 °F 87% 30.12 in 10.0 mi WNW 3.5 mph - N/A   Mostly Cloudy
8:51 AM 68.0 °F - 62.1 °F 81% 30.12 in 10.0 mi Calm Calm - N/A   Mostly Cloudy
9:51 AM 72.0 °F - 61.0 °F 68% 30.10 in 10.0 mi SSE 3.5 mph - N/A   Mostly Cloudy
10:51 AM 73.9 °F - 62.1 °F 66% 30.11 in 10.0 mi SSE 4.6 mph - N/A   Mostly Cloudy
11:20 AM 75.9 °F - 62.1 °F 62% 30.14 in 10.0 mi Calm Calm - N/A   Mostly Cloudy
11:40 AM 75.9 °F - 62.1 °F 62% 30.14 in 10.0 mi North - - N/A   Overcast
11:51 AM 75.9 °F - 63.0 °F 64% 30.09 in 10.0 mi West 4.6 mph - N/A   Overcast
12:51 PM 79.0 °F - 64.0 °F 60% 30.08 in 10.0 mi Variable 5.8 mph - N/A   Mostly Cloudy
1:51 PM 80.1 °F 81.7 °F 64.0 °F 58% 30.07 in 10.0 mi WNW 8.1 mph - N/A   Mostly Cloudy
2:51 PM 79.0 °F - 64.0 °F 60% 30.06 in 10.0 mi NW 9.2 mph - N/A   Mostly Cloudy
3:51 PM 82.0 °F 83.1 °F 63.0 °F 52% 30.04 in 10.0 mi WSW 9.2 mph - N/A   Partly Cloudy
4:51 PM 80.1 °F 81.2 °F 62.1 °F 54% 30.04 in 10.0 mi West 9.2 mph - N/A   Overcast
5:51 PM 79.0 °F - 63.0 °F 58% 30.04 in 10.0 mi NW 9.2 mph - N/A   Scattered Clouds
6:51 PM 75.0 °F - 63.0 °F 66% 30.06 in 10.0 mi Variable 4.6 mph - N/A   Mostly Cloudy
7:51 PM 73.0 °F - 62.1 °F 68% 30.08 in 10.0 mi Calm Calm - N/A   Partly Cloudy
8:51 PM 71.1 °F - 60.1 °F 68% 30.09 in 10.0 mi NNW 4.6 mph - N/A   Scattered Clouds
9:51 PM 64.0 °F - 60.1 °F 87% 30.11 in 10.0 mi Calm Calm - N/A   Clear
10:51 PM 62.1 °F - 59.0 °F 90% 30.11 in 10.0 mi Calm Calm - N/A   Clear
11:33 PM 62.1 °F - 59.0 °F 90% 30.14 in 8.0 mi SSE 3.5 mph - N/A   Mostly Cloudy
11:51 PM 62.1 °F - 59.0 °F 90% 30.13 in 8.0 mi Calm Calm - N/A   Scattered Clouds